BEL2TH LIRF-EBBR

Flight info

Callsign BEL2TH
Flight time N/A
Altitude 34000
Route NEMBO DCT GOVGO DCT AOSTA DCT ORSUD DCT MOLUS DCT GILIR DCT PENDU DCT IXILU DCT GIVOR/N0433F320 DCT SORAL DCT IBERA N853 DIK Y37 BATTY
Aircraft A319/M-SDE3FGHIRWY/LB1

Departure

Time 2026-05-05 07:08
Airport Rome–Fiumicino Leonardo da Vinci International Airport (LIRF)

Arrival

Time N/A
Airport Brussels Airport (EBBR)
Time Latitude Longitude Altitude Speed Heading
2026-05-05 06:29 41.79769 12.25668 15 ft 0 kts 296°
2026-05-05 06:54 41.79767 12.25673 15 ft 3 kts 296°
2026-05-05 06:54 41.79753 12.25704 17 ft 4 kts 313°
2026-05-05 06:54 41.79733 12.25720 15 ft 4 kts 17°
2026-05-05 06:54 41.79728 12.25719 15 ft 0 kts 25°
2026-05-05 06:57 41.79731 12.25721 15 ft 2 kts 25°
2026-05-05 06:57 41.79755 12.25736 17 ft 6 kts 25°
2026-05-05 06:57 41.79801 12.25765 17 ft 8 kts 25°
2026-05-05 06:58 41.79853 12.25802 16 ft 9 kts 34°
2026-05-05 06:58 41.79914 12.25827 15 ft 10 kts 339°
2026-05-05 06:58 41.79955 12.25746 15 ft 11 kts 293°
2026-05-05 06:58 41.79987 12.25648 16 ft 12 kts 295°
2026-05-05 06:59 41.80023 12.25547 15 ft 12 kts 295°
2026-05-05 06:59 41.80058 12.25445 15 ft 12 kts 295°
2026-05-05 06:59 41.80095 12.25341 15 ft 13 kts 295°
2026-05-05 06:59 41.80135 12.25227 16 ft 14 kts 295°
2026-05-05 07:00 41.80176 12.25111 17 ft 14 kts 295°
2026-05-05 07:00 41.80205 12.24987 15 ft 14 kts 277°
2026-05-05 07:00 41.80200 12.24856 16 ft 14 kts 256°
2026-05-05 07:00 41.80167 12.24730 15 ft 14 kts 251°
2026-05-05 07:01 41.80133 12.24603 15 ft 15 kts 249°
2026-05-05 07:01 41.80096 12.24473 16 ft 15 kts 249°
2026-05-05 07:01 41.80059 12.24341 15 ft 15 kts 249°
2026-05-05 07:01 41.80022 12.24207 16 ft 15 kts 249°
2026-05-05 07:02 41.79988 12.24070 15 ft 16 kts 259°
2026-05-05 07:02 41.79964 12.23928 16 ft 16 kts 250°
2026-05-05 07:02 41.79930 12.23806 15 ft 13 kts 249°
2026-05-05 07:02 41.79905 12.23719 16 ft 10 kts 249°
2026-05-05 07:03 41.79924 12.23647 16 ft 7 kts 331°
2026-05-05 07:03 41.79940 12.23640 15 ft 1 kts 342°
2026-05-05 07:03 41.79957 12.23632 15 ft 5 kts 342°
2026-05-05 07:03 41.80001 12.23613 16 ft 8 kts 342°
2026-05-05 07:04 41.80060 12.23588 19 ft 11 kts 342°
2026-05-05 07:04 41.80153 12.23549 15 ft 15 kts 342°
2026-05-05 07:04 41.80252 12.23508 16 ft 15 kts 343°
2026-05-05 07:04 41.80354 12.23466 16 ft 15 kts 342°
2026-05-05 07:05 41.80457 12.23422 16 ft 16 kts 342°
2026-05-05 07:05 41.80562 12.23378 17 ft 16 kts 342°
2026-05-05 07:05 41.80669 12.23333 16 ft 16 kts 343°
2026-05-05 07:05 41.80779 12.23288 15 ft 17 kts 342°
2026-05-05 07:06 41.80837 12.23223 15 ft 11 kts 275°
2026-05-05 07:06 41.80816 12.23115 17 ft 12 kts 253°
2026-05-05 07:06 41.80790 12.23007 17 ft 10 kts 252°
2026-05-05 07:06 41.80737 12.22980 15 ft 10 kts 164°
2026-05-05 07:07 41.80665 12.23009 15 ft 13 kts 162°
2026-05-05 07:07 41.80349 12.23143 17 ft 85 kts 162°
2026-05-05 07:07 41.79555 12.23477 14 ft 148 kts 162°
2026-05-05 07:07 41.78515 12.23930 560 ft 152 kts 159°
2026-05-05 07:08 41.77503 12.24362 1292 ft 153 kts 162°
2026-05-05 07:08 41.76479 12.24717 2024 ft 152 kts 173°
2026-05-05 07:08 41.75434 12.24671 2766 ft 150 kts 190°
2026-05-05 07:08 41.74443 12.24220 3381 ft 155 kts 205°
2026-05-05 07:09 41.73509 12.23298 3736 ft 181 kts 224°
2026-05-05 07:09 41.72660 12.21950 4397 ft 193 kts 228°
2026-05-05 07:09 41.71763 12.20567 5149 ft 198 kts 228°
2026-05-05 07:09 41.70847 12.19177 6135 ft 200 kts 229°
2026-05-05 07:10 41.69997 12.17694 6977 ft 202 kts 242°
2026-05-05 07:10 41.69540 12.15913 7768 ft 205 kts 260°
2026-05-05 07:10 41.69563 12.13997 8513 ft 209 kts 279°
2026-05-05 07:10 41.69997 12.12118 9255 ft 213 kts 284°
2026-05-05 07:11 41.70420 12.10218 10016 ft 214 kts 283°
2026-05-05 07:11 41.70822 12.08291 10704 ft 216 kts 282°
2026-05-05 07:11 41.71235 12.06277 11095 ft 236 kts 282°
2026-05-05 07:11 41.71689 12.04059 11398 ft 259 kts 282°
2026-05-05 07:12 41.72190 12.01624 11679 ft 283 kts 283°
2026-05-05 07:12 41.72738 11.98985 11934 ft 306 kts 283°
2026-05-05 07:12 41.73331 11.96160 12416 ft 322 kts 282°
2026-05-05 07:12 41.73945 11.93255 13350 ft 327 kts 283°
2026-05-05 07:13 41.74568 11.90309 14200 ft 331 kts 283°
2026-05-05 07:13 41.75198 11.87318 14954 ft 337 kts 283°
2026-05-05 07:13 41.75836 11.84274 15759 ft 343 kts 282°
2026-05-05 07:13 41.76484 11.81182 16653 ft 348 kts 282°
2026-05-05 07:14 41.76971 11.77954 17458 ft 352 kts 274°
2026-05-05 07:14 41.77245 11.74676 18177 ft 355 kts 274°
2026-05-05 07:14 41.77516 11.71378 18768 ft 358 kts 273°
2026-05-05 07:14 41.77786 11.68057 19371 ft 359 kts 273°
2026-05-05 07:15 41.78055 11.64719 19982 ft 361 kts 274°
2026-05-05 07:15 41.78328 11.61373 20610 ft 362 kts 274°
2026-05-05 07:15 41.78735 11.58026 21219 ft 367 kts 282°
2026-05-05 07:15 41.79641 11.54810 21902 ft 372 kts 293°
2026-05-05 07:16 41.81043 11.51861 22523 ft 380 kts 304°
2026-05-05 07:16 41.82796 11.49172 23123 ft 385 kts 307°
2026-05-05 07:16 41.84574 11.46480 23706 ft 387 kts 307°
2026-05-05 07:16 41.86356 11.43766 24158 ft 389 kts 306°
2026-05-05 07:17 41.88145 11.41030 24603 ft 391 kts 306°
2026-05-05 07:17 41.89940 11.38278 25041 ft 393 kts 306°
2026-05-05 07:17 41.91742 11.35514 25470 ft 395 kts 306°
2026-05-05 07:17 41.93553 11.32734 25897 ft 396 kts 306°
2026-05-05 07:18 41.95373 11.29939 26308 ft 398 kts 306°
2026-05-05 07:18 41.97202 11.27133 26727 ft 400 kts 306°
2026-05-05 07:18 41.99041 11.24309 27155 ft 402 kts 305°
2026-05-05 07:18 42.00886 11.21470 27584 ft 404 kts 305°
2026-05-05 07:19 42.02737 11.18616 27995 ft 406 kts 305°
2026-05-05 07:19 42.04597 11.15746 28422 ft 408 kts 305°
2026-05-05 07:19 42.06464 11.12863 28816 ft 410 kts 305°
2026-05-05 07:19 42.08343 11.09958 29201 ft 412 kts 305°
2026-05-05 07:20 42.10226 11.07039 29575 ft 414 kts 305°
2026-05-05 07:20 42.12118 11.04111 29936 ft 416 kts 305°
2026-05-05 07:20 42.14026 11.01159 30286 ft 418 kts 306°
2026-05-05 07:20 42.15940 10.98198 30589 ft 420 kts 306°
2026-05-05 07:21 42.17862 10.95220 30881 ft 422 kts 306°
2026-05-05 07:21 42.19789 10.92226 31177 ft 424 kts 306°
2026-05-05 07:21 42.21726 10.89213 31458 ft 425 kts 306°
2026-05-05 07:21 42.23662 10.86200 31857 ft 424 kts 306°
2026-05-05 07:22 42.24963 10.84172 32141 ft 423 kts 306°
2026-05-05 07:22 42.26912 10.81202 32557 ft 424 kts 309°
2026-05-05 07:22 42.29161 10.78590 32957 ft 430 kts 319°
2026-05-05 07:22 42.31754 10.76509 33370 ft 438 kts 328°
2026-05-05 07:23 42.34605 10.74991 33777 ft 442 kts 333°
2026-05-05 07:23 42.37500 10.73581 33974 ft 441 kts 333°
2026-05-05 07:23 42.40357 10.72180 33998 ft 434 kts 333°
2026-05-05 07:24 42.45992 10.69388 34007 ft 430 kts 333°
2026-05-05 07:24 42.51599 10.66596 33990 ft 429 kts 333°
2026-05-05 07:25 42.57208 10.63809 33995 ft 429 kts 333°
2026-05-05 07:25 42.62823 10.61021 33998 ft 430 kts 333°
2026-05-05 07:26 42.68431 10.58225 33992 ft 429 kts 334°
2026-05-05 07:26 42.74043 10.55409 33994 ft 430 kts 334°
2026-05-05 07:27 42.79698 10.52575 33986 ft 430 kts 334°
2026-05-05 07:27 42.85324 10.49764 33983 ft 431 kts 334°
2026-05-05 07:28 42.90955 10.46938 33982 ft 431 kts 334°
2026-05-05 07:28 42.96589 10.44096 33982 ft 432 kts 334°
2026-05-05 07:29 43.02243 10.41246 33985 ft 433 kts 334°
2026-05-05 07:29 43.07887 10.38397 33980 ft 432 kts 334°
2026-05-05 07:30 43.13527 10.35536 33977 ft 433 kts 334°
2026-05-05 07:30 43.18890 10.31993 33974 ft 424 kts 320°
2026-05-05 07:30 43.21226 10.29561 33977 ft 421 kts 316°
2026-05-05 07:31 43.25829 10.24586 33971 ft 422 kts 316°
2026-05-05 07:31 43.30444 10.19607 33965 ft 422 kts 316°
2026-05-05 07:32 43.35063 10.14616 33964 ft 422 kts 316°
2026-05-05 07:32 43.39681 10.09618 33960 ft 423 kts 316°
2026-05-05 07:33 43.44297 10.04607 33964 ft 423 kts 316°
2026-05-05 07:33 43.48913 9.99580 33957 ft 423 kts 316°
2026-05-05 07:34 43.53525 9.94540 33961 ft 424 kts 316°
2026-05-05 07:34 43.58143 9.89484 33959 ft 424 kts 316°
2026-05-05 07:35 43.62771 9.84422 33964 ft 425 kts 316°
2026-05-05 07:35 43.67429 9.79313 33960 ft 425 kts 316°
2026-05-05 07:36 43.72054 9.74225 33956 ft 425 kts 316°
2026-05-05 07:36 43.76690 9.69122 33950 ft 426 kts 316°
2026-05-05 07:37 43.81330 9.64006 33947 ft 427 kts 316°
2026-05-05 07:37 43.85967 9.58872 33945 ft 427 kts 316°
2026-05-05 07:38 43.90606 9.53722 33942 ft 427 kts 316°
2026-05-05 07:38 43.95251 9.48571 33938 ft 428 kts 316°
2026-05-05 07:39 43.99902 9.43399 33936 ft 428 kts 316°
2026-05-05 07:39 44.04548 9.38203 33934 ft 429 kts 316°
2026-05-05 07:40 44.09201 9.32995 33935 ft 430 kts 316°
2026-05-05 07:40 44.13869 9.27769 33935 ft 431 kts 316°
2026-05-05 07:41 44.18546 9.22519 33943 ft 431 kts 316°
2026-05-05 07:41 44.23212 9.17264 33946 ft 431 kts 316°
2026-05-05 07:42 44.27915 9.11958 33949 ft 433 kts 316°
2026-05-05 07:42 44.32604 9.06671 33955 ft 433 kts 316°
2026-05-05 07:43 44.37293 9.01368 33955 ft 434 kts 316°
2026-05-05 07:43 44.41983 8.96049 33959 ft 435 kts 316°
2026-05-05 07:44 44.46679 8.90708 33959 ft 435 kts 316°
2026-05-05 07:44 44.51381 8.85344 33962 ft 436 kts 316°
2026-05-05 07:45 44.56085 8.79965 33962 ft 437 kts 316°
2026-05-05 07:45 44.60794 8.74571 33960 ft 437 kts 316°
2026-05-05 07:46 44.65517 8.69168 33974 ft 438 kts 316°
2026-05-05 07:46 44.70241 8.63752 33982 ft 439 kts 316°
2026-05-05 07:47 44.74962 8.58311 33981 ft 439 kts 316°